[[{"header":{"parameterUnit":"m.s-1","parameterCategory":1,"la1":30.2991,"la2":30.254,"lo1":-89.0895,"lo2":-89.0444,"dy":0.0017,"dx":0.0017,"nx":28,"ny":28,"refTime":"2024-06-28T09:00:00:Z","depth":0,"parameterNumber":2,"parameterNumberName":"U-component_of_WINDS"},"data":[0,0,0,0,0,0,0,0,0,0,0,0,0,0,0,0,0,0,0,0,0,0,0,0,0,0,0,0,0,0,0,0,0,0,0,0,0,0,0,0,0,0,0,0,0,0,0,0,0,0,0,0,0,0,0,0,0,0,0.2508,0.2509,0,0.2624,0.2625,0.2626,0.271,0.2711,0.2712,0.2712,0.2832,0.2834,0.2837,0,0,0,0,0,0,0,0,0,0,0,0,0,0.2361,0.2363,0.2508,0.2509,0.2511,0.2623,0.2625,0.2627,0.271,0.2711,0.2712,0.2713,0.2831,0.2834,0.2837,0,0,0,0,0,0,0,0,0,0,0,0,0,0.2445,0.2364,0.2508,0.2566,0.2572,0.2623,0.2625,0.2627,0.271,0.2711,0.2712,0.2713,0.283,0.2834,0.2837,0.284,0,0,0.2849,0.2851,0,0,0,0,0,0,0,0,0.244,0.2451,0.2556,0.2562,0.2569,0.2654,0.2617,0.2698,0.271,0.2658,0.2712,0.2714,0.2772,0.278,0.28,0.2845,0.285,0.2849,0.2852,0.2853,0.2854,0,0,0,0,0,0,0,0.2434,0.2446,0.2554,0.2557,0.2566,0.2587,0.26,0.2633,0.2707,0.2662,0.2669,0.2681,0.2776,0.2796,0.2803,0.2852,0.2849,0.2853,0.2855,0.2856,0.2906,0.2905,0,0,0,0,0,0,0.2419,0.2441,0.255,0.2557,0.2506,0.2589,0.2604,0.2626,0.2707,0.2721,0.268,0.2685,0.2789,0.2799,0.2808,0.2816,0.2853,0.2857,0.2859,0.2907,0.2906,0.2905,0,0,0,0,0,0,0.2416,0.2428,0.2545,0.2501,0.2517,0.259,0.2614,0.2627,0.2648,0.2721,0.2735,0.2687,0.279,0.2802,0.2831,0.2821,0.2858,0.2862,0.2908,0.2907,0.2905,0.2832,0,0,0,0,0,0,0.2411,0.2426,0.2427,0.25,0.2519,0.2566,0.2614,0.2629,0.2654,0.2661,0.2731,0.2744,0.2792,0.2825,0.2835,0.2827,0.2865,0.2909,0.2907,0.2906,0.2836,0.2828,0.2822,0,0,0,0,0,0.2406,0.2402,0.2427,0.244,0.2522,0.2565,0.2576,0.2632,0.2653,0.2655,0.2702,0.2741,0.2821,0.2827,0.2839,0.2832,0.291,0.2908,0.2906,0.2839,0.283,0.2822,0,0,0,0,0,0,0.2326,0.2413,0.2441,0.2461,0.2505,0.2579,0.2583,0.262,0.266,0.2664,0.2732,0.2747,0.2769,0.2804,0.2809,0.2839,0.2871,0.2871,0.2816,0.2808,0.2801,0.2792,0.2868,0,0,0,0,0,0.2311,0.2339,0.2413,0.2423,0.2444,0.251,0.2531,0.257,0.2618,0.2637,0.2687,0.2732,0.2768,0.279,0.2827,0.2842,0.2858,0.2843,0.2836,0.283,0.2829,0.284,0.2835,0.2898,0.2898,0.2898,0,0,0.228,0.2331,0.2344,0.2409,0.2448,0.2475,0.2525,0.2552,0.2573,0.2642,0.2672,0.2709,0.2765,0.2787,0.2799,0.2817,0.2816,0.2827,0.2822,0.2825,0.2838,0.2832,0.2826,0.2896,0.2897,0.2897,0,0,0.2237,0.2278,0.2292,0.233,0.2388,0.2432,0.2435,0.2504,0.2532,0.2563,0.2616,0.2642,0.2702,0.2739,0.2766,0.2739,0.2777,0.2749,0.2714,0.2724,0.2719,0.2715,0.2705,0.2701,0.2748,0.2748,0.2748,0,0.2191,0.2235,0.2294,0.2318,0.2345,0.2409,0.2424,0.2458,0.2525,0.2542,0.2561,0.2638,0.268,0.2712,0.2705,0.2725,0.2731,0.2741,0.2715,0.2711,0.2708,0.27,0.2696,0.2744,0.2745,0.2745,0.2746,0,0.2175,0.2205,0.2209,0.2272,0.23,0.2319,0.2382,0.2403,0.244,0.2482,0.2514,0.2566,0.2615,0.2626,0.2662,0.2663,0.2672,0.2702,0.2734,0.2697,0.2691,0.2688,0.2739,0.274,0.2742,0.2743,0,0,0.2085,0.2182,0.2182,0.2212,0.2282,0.2306,0.2328,0.2376,0.2393,0.2438,0.2458,0.2508,0.2536,0.2566,0.2607,0.2616,0.2592,0.2645,0.2648,0.2633,0.2597,0.2574,0.2569,0.2618,0.2617,0.2617,0.2592,0,0.2053,0.2096,0.2151,0.2176,0.2204,0.2266,0.2286,0.2331,0.2371,0.2401,0.2446,0.248,0.2514,0.2533,0.2545,0.2592,0.2585,0.2595,0.2638,0.2638,0.2621,0.2566,0.2541,0.2515,0.259,0.2589,0.2589,0,0.2021,0.2062,0.209,0.2158,0.2172,0.2189,0.2238,0.2266,0.2318,0.2347,0.2381,0.2426,0.2453,0.2483,0.2522,0.2527,0.2548,0.2574,0.2574,0.258,0.2611,0.257,0.2508,0.2504,0.2586,0.2586,0.2586,0,0.1952,0.2015,0.204,0.2064,0.2144,0.2154,0.2188,0.2242,0.2268,0.231,0.2328,0.2373,0.2397,0.2432,0.2487,0.2503,0.252,0.2554,0.2545,0.2543,0.2545,0.2544,0.2486,0.2559,0.2559,0.2559,0.2559,0,0.191,0.1925,0.201,0.2026,0.2044,0.2108,0.2124,0.2164,0.2212,0.2236,0.2292,0.2314,0.2386,0.2417,0.2461,0.2486,0.2497,0.2521,0.2532,0.2516,0.2513,0.253,0.2533,0.2558,0.2558,0.2559,0.2559,0,0.1836,0.1894,0.1925,0.1999,0.2018,0.2028,0.2092,0.2109,0.2153,0.2183,0.2194,0.2263,0.2302,0.2361,0.2417,0.2447,0.2465,0.2484,0.2447,0.2454,0.2442,0.2442,0.2392,0.2389,0.2463,0.2463,0.2462,0,0.1805,0.1818,0.1893,0.1914,0.1946,0.1978,0.2005,0.2068,0.2094,0.2155,0.2165,0.2209,0.2247,0.2306,0.2361,0.2404,0.2425,0.2404,0.2432,0.2415,0.2424,0.2423,0.2424,0.2398,0.2396,0.2396,0.2395,0,0.1744,0.1773,0.1809,0.1855,0.1886,0.1925,0.1968,0.1981,0.2054,0.208,0.212,0.215,0.2208,0.225,0.2301,0.2337,0.2378,0.2386,0.2386,0.2369,0.2347,0.2359,0.2429,0.2387,0.2387,0.2388,0.2388,0.2389,0.1691,0.1705,0.1761,0.18,0.1839,0.1877,0.1898,0.1945,0.1979,0.2032,0.2067,0.2106,0.2159,0.2233,0.2266,0.2297,0.2315,0.2315,0.2315,0.2314,0.2308,0.2342,0.2307,0.2307,0.2307,0.2308,0.2308,0,0.1633,0.1672,0.1707,0.1765,0.1796,0.1833,0.1882,0.1905,0.1938,0.1985,0.2021,0.2068,0.2109,0.2168,0.2214,0.2228,0.2248,0.2238,0.2237,0.2245,0.2289,0.2284,0.2221,0.2221,0.2221,0.2221,0.2221,0.2221,0.1606,0.1633,0.1668,0.1715,0.1755,0.1793,0.1818,0.1854,0.1892,0.1942,0.1977,0.2015,0.2067,0.2117,0.2157,0.2173,0.2187,0.2171,0.2193,0.2233,0.2241,0.2249,0.2245,0.2174,0.2174,0.2146,0.2145,0.2145]},{"header":{"parameterUnit":"m.s-1","parameterCategory":1,"la1":30.2991,"la2":30.254,"lo1":-89.0895,"lo2":-89.0444,"dy":0.0017,"dx":0.0017,"nx":28,"ny":28,"refTime":"2024-06-28T09:00:00:Z","depth":0,"parameterNumber":3,"parameterNumberName":"V-component_of_WINDS"},"data":[0,0,0,0,0,0,0,0,0,0,0,0,0,0,0,0,0,0,0,0,0,0,0,0,0,0,0,0,0,0,0,0,0,0,0,0,0,0,0,0,0,0,0,0,0,0,0,0,0,0,0,0,0,0,0,0,0,0,4.6035,4.6036,0,4.6057,4.6057,4.6057,4.6053,4.6053,4.6052,4.6052,4.6071,4.6072,4.6073,0,0,0,0,0,0,0,0,0,0,0,0,0,4.5988,4.5989,4.6035,4.6036,4.6036,4.6057,4.6057,4.6057,4.6053,4.6053,4.6052,4.6052,4.6071,4.6072,4.6073,0,0,0,0,0,0,0,0,0,0,0,0,0,4.6009,4.599,4.6035,4.6036,4.6037,4.6057,4.6057,4.6057,4.6053,4.6053,4.6052,4.6052,4.607,4.6072,4.6073,4.6092,0,0,4.6077,4.6077,0,0,0,0,0,0,0,0,4.6008,4.6011,4.6036,4.6036,4.6037,4.6052,4.6047,4.6069,4.6053,4.6047,4.6052,4.6051,4.6065,4.6067,4.6072,4.6093,4.6094,4.6077,4.6078,4.6078,4.6079,0,0,0,0,0,0,0,4.6007,4.601,4.6044,4.6036,4.6037,4.6035,4.6037,4.6051,4.6059,4.6047,4.6047,4.605,4.6065,4.607,4.6072,4.6094,4.6077,4.6078,4.6079,4.6079,4.6132,4.6132,0,0,0,0,0,0,4.6005,4.6009,4.6043,4.6044,4.6021,4.6036,4.6039,4.6047,4.6059,4.606,4.605,4.605,4.6069,4.6071,4.6073,4.6096,4.6078,4.608,4.608,4.6131,4.6132,4.6133,0,0,0,0,0,0,4.6004,4.6008,4.6042,4.6026,4.6031,4.6038,4.6047,4.6048,4.6054,4.6061,4.6062,4.6055,4.6068,4.6071,4.6087,4.6096,4.608,4.6081,4.613,4.6131,4.6132,4.6142,0,0,0,0,0,0,4.6003,4.6008,4.6016,4.6027,4.6032,4.6057,4.6048,4.6049,4.6056,4.6055,4.6065,4.6066,4.6068,4.6086,4.6089,4.6098,4.6082,4.613,4.6131,4.6132,4.6141,4.6143,4.6145,0,0,0,0,0,4.6001,4.6017,4.6016,4.602,4.6042,4.6058,4.606,4.6063,4.6057,4.6065,4.6069,4.6066,4.6095,4.6087,4.6091,4.6101,4.6129,4.6131,4.6132,4.614,4.6143,4.6145,0,0,0,0,0,0,4.6006,4.6019,4.6018,4.6038,4.6047,4.6057,4.6067,4.6066,4.6076,4.6074,4.6076,4.6078,4.6095,4.6099,4.6091,4.612,4.6111,4.6113,4.6116,4.6119,4.6121,4.6119,4.6083,0,0,0,0,0,4.601,4.6023,4.6033,4.6049,4.6054,4.606,4.6067,4.6068,4.6077,4.608,4.6086,4.6094,4.6105,4.6112,4.6123,4.6142,4.6144,4.615,4.6152,4.6154,4.6156,4.6166,4.6169,4.6137,4.6137,4.6137,0,0,4.6017,4.6025,4.6033,4.6051,4.6058,4.607,4.6063,4.6076,4.6085,4.6082,4.6098,4.6103,4.6112,4.613,4.6138,4.6134,4.6165,4.6156,4.6157,4.6158,4.6168,4.6171,4.6173,4.6138,4.6138,4.6138,0,0,4.6037,4.6045,4.606,4.6067,4.6078,4.6082,4.6086,4.6096,4.6099,4.6116,4.6114,4.6124,4.6143,4.6149,4.6155,4.6178,4.6175,4.6181,4.6192,4.6202,4.6204,4.6206,4.6214,4.6217,4.6183,4.6183,4.6183,0,4.6044,4.6064,4.6067,4.6081,4.6089,4.6087,4.6102,4.6109,4.6122,4.6127,4.6122,4.6146,4.6152,4.6172,4.6177,4.6182,4.6186,4.618,4.6204,4.6206,4.6208,4.6215,4.6218,4.6183,4.6183,4.6183,4.6183,0,4.6072,4.6086,4.6096,4.6111,4.6119,4.6134,4.6138,4.6146,4.6147,4.6151,4.6167,4.6174,4.6186,4.6191,4.6191,4.621,4.6208,4.6203,4.6195,4.6212,4.6219,4.6221,4.6184,4.6184,4.6184,4.6184,0,0,4.6096,4.6112,4.6116,4.6122,4.6135,4.6145,4.6159,4.6171,4.6178,4.6187,4.6199,4.6215,4.6211,4.6218,4.6218,4.6227,4.6244,4.6222,4.6222,4.6226,4.6266,4.6269,4.6272,4.6243,4.6243,4.6244,4.6265,0,4.6116,4.6142,4.6146,4.6168,4.618,4.6179,4.6191,4.6199,4.6203,4.6214,4.6218,4.6229,4.6224,4.6227,4.6236,4.624,4.6252,4.6239,4.6253,4.6253,4.625,4.6276,4.6279,4.6299,4.6268,4.6268,4.6268,0,4.6144,4.6156,4.6179,4.619,4.6196,4.6206,4.6218,4.6228,4.6238,4.624,4.6247,4.6247,4.6261,4.6252,4.627,4.6261,4.6267,4.627,4.627,4.6272,4.6262,4.6278,4.6305,4.6308,4.6273,4.6272,4.6272,0,4.6159,4.618,4.6197,4.6202,4.6215,4.6223,4.6229,4.6237,4.6245,4.6255,4.6259,4.627,4.6276,4.6285,4.6287,4.628,4.6305,4.6296,4.6307,4.6307,4.6312,4.6312,4.6341,4.6316,4.6316,4.6316,4.6316,0,4.6182,4.6196,4.6204,4.6214,4.623,4.6234,4.6249,4.6254,4.6262,4.6273,4.6272,4.6282,4.6285,4.6295,4.6297,4.6312,4.6314,4.6316,4.6316,4.6316,4.6316,4.632,4.6318,4.6316,4.6316,4.6316,4.6316,0,4.6201,4.6206,4.6225,4.6236,4.6239,4.625,4.6259,4.6269,4.6273,4.6287,4.629,4.6296,4.6308,4.6311,4.6325,4.6326,4.6344,4.6343,4.6341,4.6341,4.6351,4.635,4.6384,4.6389,4.636,4.6361,4.6361,0,4.6215,4.6227,4.6239,4.6247,4.6253,4.6265,4.6273,4.6276,4.6284,4.6296,4.6304,4.6316,4.6326,4.6345,4.635,4.6361,4.636,4.6371,4.6361,4.6361,4.636,4.6359,4.6361,4.6373,4.6373,4.6373,4.6373,0,4.624,4.6242,4.6254,4.6267,4.6276,4.6286,4.6296,4.6302,4.6307,4.6315,4.6328,4.6336,4.6351,4.6363,4.6373,4.6378,4.6376,4.6376,4.6379,4.6379,4.6378,4.6379,4.6346,4.6376,4.6375,4.6375,4.6375,4.6375,4.6257,4.6267,4.6278,4.6291,4.6299,4.6308,4.6317,4.6323,4.6334,4.6347,4.6348,4.6362,4.637,4.6385,4.639,4.6401,4.6397,4.6401,4.6402,4.6404,4.6405,4.6376,4.6402,4.6402,4.6402,4.6402,4.6402,0,4.6282,4.6289,4.6301,4.6315,4.6325,4.6324,4.6334,4.6342,4.6355,4.6363,4.6373,4.6388,4.6399,4.6405,4.6416,4.6424,4.6423,4.6426,4.6426,4.6427,4.6407,4.6403,4.6427,4.6427,4.6427,4.6427,4.6427,4.6427,4.6296,4.6313,4.6317,4.6338,4.6344,4.6358,4.6365,4.6373,4.6379,4.6396,4.6406,4.641,4.6418,4.6429,4.6439,4.6441,4.6445,4.6449,4.645,4.6431,4.6428,4.6426,4.6423,4.645,4.645,4.6469,4.6469,4.6469]}]]